Location: Twin Oaks Observatory
(35.2860°N, 85.1951°W)
Time: 18:26:54
(UTC-04:00)

Daily predictions for brighter satellites

Satellite Brightness Start Highest point End
(mag) Time Altitude Azimuth Time Altitude Azimuth Time Altitude Azimuth
Cosmos 1802 Rocket 4.2 21:00:38 10° S 21:06:58 89° W 21:13:23 10° N
Cosmos 2360 4.4 21:03:22 10° NNW 21:09:03 63° ENE 21:14:42 10° SSE
Cosmos 1536 3.5 21:05:08 10° NNW 21:09:09 59° W 21:13:08 10° S
Thor Agena Rocket 3.6 21:07:29 10° NNE 21:12:43 63° ESE 21:17:50 10° S
Cosmos 2084 3.9 21:09:15 10° S 21:13:22 39° ESE 21:17:17 10° NE
Atlas Centaur 2 1.9 21:11:48 10° WSW 21:15:42 38° S 21:19:08 10° ESE
Cosmos 1697 Rocket 3.3 21:12:17 10° NNW 21:17:51 59° WSW 21:23:22 10° S
Cosmos 2233 Rocket 4.5 21:12:52 10° SSE 21:18:29 40° E 21:24:11 10° NNE
SJ-6B 3.2 21:17:20 10° S 21:21:01 62° W 21:24:43 10° NNW
Cosmos 1500 3.2 21:17:59 10° N 21:21:52 85° E 21:25:43 10° S
Cosmos 1975 3.8 21:19:35 10° NNE 21:23:09 29° ENE 21:26:39 10° SE
Resurs 01 Rocket 1.9 21:22:29 10° SSE 21:26:46 53° ENE 21:31:03 10° N
OAO 1 Rocket 4.4 21:21:49 10° W 21:27:09 83° S 21:32:31 10° E
Spot 2 Rocket 4.0 21:22:57 10° SE 21:27:41 42° ENE 21:32:23 10° N
Cosmos 2360 Rocket 4.2 21:26:06 10° NNE 21:28:12 12° NE 21:30:18 10° ENE
deb Kosmos-1763 4.3 21:25:26 10° S 21:29:00 47° ESE 21:32:34 10° NNE
Cosmos 468 Rocket 4.0 21:25:15 10° S 21:30:26 61° ESE 21:35:36 10° NNE
Cosmos 1980 Rocket 2.3 21:25:56 10° NNW 21:31:36 82° WSW 21:37:17 10° SSE
ERS-2 2.1 21:30:04 10° SSE 21:33:43 71° ENE 21:37:24 10° N
ATLAS CENTAUR R/B 2.1 21:29:20 10° NW 21:33:54 62° WSW 21:38:39 10° SSE
BREEZE-M DEB (TANK) 2.2 21:31:39 10° NW 21:34:38 39° NNE 21:36:08 14° E
Cosmos 1300 Rocket 4.0 21:30:49 10° NNW 21:35:08 64° W 21:39:24 10° S
Cosmos 1666 3.5 21:32:53 10° NNE 21:36:27 34° E 21:39:28 13° SE
Cosmos 1763 Rocket 3.9 21:31:42 10° S 21:36:39 41° ESE 21:41:36 10° NNE
Cosmos 841 Rocket 4.3 21:37:44 10° SSE 21:42:17 31° E 21:46:53 10° NE
SJ-11-01 4.3 21:41:01 10° SSE 21:45:44 82° ENE 21:50:29 10° N
EPKM 3.7 21:40:32 10° WSW 21:46:36 24° SSW 21:48:26 16° SSE
Delta 7925 Rocket 4.3 21:42:34 10° WSW 21:46:36 27° S 21:49:13 17° SE
Cosmos 1743 3.0 21:45:20 10° N 21:49:02 45° E 21:51:39 17° SSE
GPS 2-05 Rocket1 4.0 21:47:52 10° SSW 21:50:33 23° SSE 21:51:14 21° SE
Iridium 2 4.3 21:49:31 16° SSE 21:52:10 38° E 21:55:45 10° NNE
SAR-Lupe-3 4.4 21:49:25 10° NNE 21:53:00 78° ESE 21:56:35 10° S
GPS 2-04 Rocket1 3.8 21:49:31 10° W 21:53:20 34° SSW 21:55:49 18° SSE
Okean 1 4.1 21:49:35 10° SSW 21:53:32 53° W 21:57:32 10° N
Centaur D-1A AC-31 2.2 21:52:21 10° W 21:58:54 33° SSW 22:00:42 21° SE
USA 234 3.4 21:52:47 10° NE 21:59:22 83° NW 22:05:56 10° SW
Timation 2 Rocket 4.2 21:55:36 10° SSW 22:01:32 71° WNW 22:07:34 10° NNE
Meteor 2-4 Rocket 3.9 21:58:24 11° SSE 22:03:24 50° E 22:08:44 10° NNE
Cosmos 1939 Rocket 4.3 21:59:57 10° SSW 22:03:45 36° W 22:07:36 10° NNW
NOSS 3-2 (C) 4.1 21:58:05 10° SW 22:03:49 57° NW 22:10:09 10° NNE
Lacrosse 5 rocket 3.8 22:02:26 10° N 22:04:28 13° NNE 22:06:27 10° ENE
Cosmos 1464 Rocket 4.4 22:05:11 17° SSE 22:09:45 44° E 22:15:44 10° NNE
ERS-1 Rocket 4.0 22:07:46 21° ESE 22:09:59 30° ENE 22:14:18 10° N
Cosmos 1356 4.0 22:17:03 36° ESE 22:17:20 36° E 22:20:33 10° NNE
Cosmos 1515 4.5 22:17:00 30° ESE 22:17:24 31° E 22:20:49 10° NNE
ARGOS 3.3 22:15:18 24° SE 22:18:29 60° ENE 22:23:48 10° N
Cosmos 1898 Rocket 3.5 22:14:01 10° NNW 22:19:21 83° WSW 22:22:49 22° SSE
Cosmos 1814 Rocket 4.1 22:15:03 10° SSW 22:20:16 79° WNW 22:25:35 10° NNE
H-2A R/B 2.3 22:19:42 29° SE 22:21:55 49° ENE 22:26:44 10° N
Tiangong 2 3.5 22:19:27 10° WNW 22:22:00 22° N 22:24:33 10° NE
Cosmos 2322 Rocket 2.1 22:17:34 10° NNW 22:23:12 81° ENE 22:26:18 28° SSE
CENTAUR R/B 2.4 22:17:38 10° SSW 22:23:24 88° ESE 22:30:03 10° NNE
Cosmos 1455 Rocket 3.3 22:21:35 10° N 22:25:52 52° E 22:27:13 37° SE
Cosmos 1340 Rocket 2.7 22:25:14 30° S 22:27:08 71° E 22:31:12 10° NNE
Cosmos 292 Rocket 3.6 22:24:23 10° SSW 22:29:09 87° ESE 22:33:55 10° NNE
SL-16 R/B 2.2 22:26:58 10° NNW 22:32:39 79° WSW 22:35:43 28° SSE
Cosmos 1975 Rocket 4.3 22:29:12 10° SSW 22:33:16 40° W 22:37:22 10° N
Cosmos 990 Rocket 4.0 22:29:58 10° NNW 22:35:13 83° WSW 22:37:45 31° S
Shenzhou-11 Module 3.6 22:32:46 10° NW 22:35:23 27° NNE 22:36:04 25° NE
Cosmos 1242 Rocket 4.0 22:38:15 10° NNW 22:41:33 33° W 22:43:20 21° SW
DMSP B5D2-2 4.2 22:36:45 10° NNE 22:41:56 54° E 22:43:34 39° SSE
Helios 1A 3.7 22:41:57 35° E 22:42:15 35° ENE 22:46:03 10° N
Meteor 2-20 4.4 22:36:11 10° N 22:42:22 85° W 22:45:56 27° S
Aureole 2 Rocket 2.9 22:41:00 10° N 22:43:07 40° NNE 22:43:07 40° NNE
Meteor 2-20 Rocket 4.4 22:40:39 10° N 22:46:48 80° E 22:49:36 35° SSE
MetOp-B 4.1 22:44:58 35° S 22:47:20 86° WSW 22:52:43 10° NNW
Cosmos 2219 4.4 22:48:54 25° E 22:48:54 25° E 22:52:44 10° NE
Okean 2 4.1 22:50:55 39° ENE 22:50:55 39° ENE 22:54:21 10° NNE
Cosmos 1544 Rocket 3.7 22:48:47 10° N 22:53:13 72° W 22:54:28 45° SSW
Meteor 1-15 Rocket 4.3 22:50:22 10° N 22:56:02 60° E 22:57:22 47° SE
Cosmos 2150 Rocket 4.1 22:51:49 10° NNW 22:57:10 76° WSW 22:58:51 44° S
CZ-4C R/B 4.1 22:53:11 10° NNW 22:59:33 31° NE 23:03:19 22° E
SL-08 RB Rocket 3.9 22:58:55 44° SSW 23:00:10 63° W 23:04:42 10° NNW
Cosmos 1356 Rocket 4.1 23:03:26 42° ENE 23:03:26 42° ENE 23:06:48 10° NNE
Resurs 01 Rocket 4.4 23:02:12 10° WSW 23:03:30 11° W 23:04:48 10° WNW
Atlas Centaur 2 3.5 23:01:16 10° WSW 23:02:01 13° SW 23:02:01 13° SW
SJ 16-02 1.7 23:01:03 10° N 23:05:18 51° ENE 23:05:18 51° ENE
Cosmos 1536 Rocket 3.9 23:05:18 42° SW 23:06:35 62° W 23:11:01 10° N
Cosmos 540 Rocket 3.8 23:06:54 23° SSW 23:10:07 63° WNW 23:15:16 10° N
OAO 1 Rocket 4.3 23:07:32 10° W 23:12:53 81° S 23:13:32 68° ESE
Cosmos 2360 Rocket 2.1 23:07:17 10° NNW 23:12:58 90° NE 23:14:04 60° SSE
Helios 1B rocket 2.6 23:10:24 10° NNE 23:13:58 63° NE 23:13:58 63° NE
Landsat 7 3.9 23:14:41 61° E 23:14:45 62° ENE 23:19:27 10° N
CZ-2C R/B 4.0 23:11:11 10° NE 23:14:47 26° ENE 23:14:47 26° ENE
Cosmos 2219 Rocket 3.4 23:12:15 10° N 23:16:54 26° ENE 23:17:36 26° ENE
Cosmos 1092 Rocket 4.3 23:13:46 10° N 23:19:56 50° E 23:20:43 47° ESE
IGS 5A 4.2 23:21:30 43° NE 23:21:30 43° NE 23:24:45 10° N
Nadezhda 4 Rocket 3.9 23:16:13 10° N 23:22:33 80° E 23:23:53 58° SSE
SPOT 5 2.8 23:28:41 67° W 23:28:41 67° W 23:33:02 10° NNW
SL-19 R/B 4.4 23:30:46 63° SE 23:31:44 77° ENE 23:38:11 10° NNW
Terra 2.1 23:33:59 59° NE 23:33:59 59° NE 23:38:13 10° N
CARTOSAT-1 4.1 23:39:20 56° N 23:39:20 56° N 23:42:47 10° N
Cosmos 372 Rocket 3.9 23:34:01 10° NNW 23:39:00 80° WNW 23:39:00 80° WNW
Cosmos 2333 Rocket 3.1 23:34:10 10° N 23:39:25 36° ENE 23:39:38 36° ENE
CZ-2C R/B 3.4 23:41:20 56° ENE 23:41:20 56° ENE 23:46:36 10° N
COSMOS 2428 2.8 23:36:56 10° NNW 23:42:34 63° ENE 23:42:36 63° ENE
Lacrosse 5 rocket 2.4 23:40:07 10° NW 23:43:05 43° NW 23:43:05 43° NW
ERS-1 Rocket 4.5 23:47:45 25° WSW 23:48:41 26° W 23:52:53 10° NW
BREEZE M DEB (TANK) 4.0 23:44:01 10° WNW 23:47:56 30° W 23:47:56 30° W
Cosmos 2026 Rocket 4.2 23:43:29 10° N 23:49:21 53° ENE 23:49:21 53° ENE
Cosmos 2279 Rocket 4.5 23:50:11 45° ENE 23:50:11 45° ENE 23:55:33 10° NNE
Cosmos 1025 Rocket 4.1 23:51:30 41° WNW 23:51:30 41° WNW 23:55:20 10° N
